{"data":{"norad_id":69213,"intl_designator":"2026-115C","name":"STARLINK-37716","alt_names":[],"object_type":"PAYLOAD","status":"ACTIVE","operator":null,"country":"US","launch_date":"2026-05-26","launch_site_code":"AFWTR","launch_vehicle":null,"mission":null,"orbit_class":"UNKNOWN","rcs_meters":null,"size_class":null,"mass_kg":null,"dimensions":null,"purposes":["comms"],"wikipedia_slug":null,"has_3d_model":false,"image_url":null,"decayed_at":null,"tle_current":{"epoch":"2026-09-20T00:42:20.077056Z","epoch_age_seconds":67692,"freshness":"FRESH","line1":"1 69213U 26115C   26263.02939904  .00009860  00000+0  30733-3 0  9992","line2":"2 69213  97.2850 279.0605 0000653  86.3040 273.8278 15.33445944 19210","mean_motion":15.33445944,"eccentricity":6.53e-5,"inclination_deg":97.285,"raan_deg":279.0605,"arg_perigee_deg":86.304,"mean_anomaly_deg":273.8278,"bstar":0.00030733,"rev_number":1921,"period_min":93.906146847521,"perigee_km":465.09347366775,"apogee_km":465.98725793172,"semimajor_km":6843.6773657997,"source":"CELESTRAK","updated_at":"2026-09-20T09:00:44.102068Z"}}}